NOAA 20 (JPSS-1)

Last updated on Thu Nov 21 2024 00:02:20 GMT+0000 (Coordinated Universal Time)

1 43013U 17073A 24325.53491881 .00000207 00000+0 11883-3 0 9996 2 43013 98.7215 260.9127 0002258 102.8170 257.3259 14.19570579363089
UTC large
Height (km)
Speed (km/s)
/
Latitude / Longitude
Inclination (degrees)
Orbital Period (minutes)
Azimuth
Elevation
Range (km)
Doppler Factor

Next 0 passes for location: London (51.5072 / 0.1276)

Sorry there are no passes over London.